ENSB

Details ICAO ENSB (LYR)
Name Svalbard Longyear
Region Norway
Timezone Arctic/Longyearbyen (UTC+2.0)
Plans Departing 247
Arriving 356
Stats Elevation 88 ft / 27 m (AMSL)
Location 78.246037° 15.467196°
Runways 1
Magnetic Variation 9.009° E
Sunrise Unknown / Unknown
Sunset Unknown / Unknown
Advertisement - Login to hide

Runways

ID Width Length Bearing (true) Bearing (mag) Surface Threshold Offset Overrun Length
10 148 ft / 45 m 7,578 ft / 2,310 m 105.32° 96.31° Asphalt 199 ft / 61 m 0 ft / 0 m
28 148 ft / 45 m 7,578 ft / 2,310 m 285.42° 276.41° Asphalt 395 ft / 120 m 0 ft / 0 m

Approach Navaids

Runway Type Ident Frequency Range Bearing (true) Bearing (mag) Slope Elevation
10 Localiser LB 110.30 MHz 18 nm / 33 km 105.42° 96.41° - 111 ft / 34 m (AMSL)
10 Glidescope LB 110.30 MHz 10 nm / 19 km 105.37° 96.36° 3.00° 88 ft / 27 m (AMSL)
28 Localiser LA 109.50 MHz 18 nm / 33 km 302.89° 293.88° - 153 ft / 47 m (AMSL)

Map

Weather


0- 5 10 15 20 25 30 35+ Temperature / ° C

Clouds and Precipitation
Forecast for 2018-05-22 00:00 UTC. Updated 6 hours ago

Ground ~20,000 ft ~40,000 ft Winds

METAR

ENSB 220350Z 11008KT 9999 -FZRA OVC028 M01/M05 Q1006 RMK WIND 1400FT 14006KT

TAF

TAF ENSB 212300Z 2200/2224 12010KT 9999 FEW030 BKN040 TEMPO 2208/2218 VRB05KT

Frequencies

Tower 119.85 MHz INFO
Warning: Do not use this data for real-world aviation or navigation. No guarantee of current accuracy is given.